Peru, IN

9:36 AM EDT on March 25, 2017 (GMT -0400)
Grissom Air Reserve Base

Weather History for KGUS - July, 2013

Change the Weather History Date:

Thursday, July 4, 2013

  Actual Average Record
Temperature  
Mean Temperature 68 °F -  
Max Temperature 76 °F 81 °F 98 °F (2012)
Min Temperature 60 °F 64 °F 51 °F (2014)
Cooling Degree Days 4    
Growing Degree Days 18 (Base 50)    
Moisture  
Dew Point 62 °F    
Average Humidity 90    
Maximum Humidity 100    
Minimum Humidity 54    
Precipitation  
Precipitation 0.00 in - - ()
Sea Level Pressure  
Sea Level Pressure 30.12 in    
Wind  
Wind Speed 3 mph (SE)    
Max Wind Speed 7 mph    
Max Gust Speed -    
Visibility 5 miles    
Events Fog    
Averages and records for this station are not official NWS values.
T = Trace of Precipitation, MM = Missing Value Source: NWS Daily Summary

Daily Weather History Graph

Daily Weather History Graph

Search for Another Location

Airport or City:

Trip Planner

Search our weather history database for the weather conditions in past years. The results will help you decide how hot, cold, wet, or windy it might be!

Date:

Astronomy

Jul. 04, 2013 Rise Set
Actual Time 6:19 AM EDT 9:18 PM EDT
Civil Twilight 5:46 AM EDT 9:51 PM EDT
Nautical Twilight 5:04 AM EDT 10:33 PM EDT
Astronomical Twilight 4:15 AM EDT 11:22 PM EDT
Moon 3:35 AM EDT (7/4) 6:22 PM EDT (7/4)
Length of Visible Light 16h 05m
Length of Day
14h 59m
Waning Crescent, 11% of the Moon is Illuminated
Jul 4
Waning Crescent
Jul 8
New
Jul 15
First Quarter
Jul 22
Full
Jul 29
Last Quarter

Hourly Weather History & Observations

Time (EDT) Temp. Dew Point Humidity Pressure Visibility Wind Dir Wind Speed Gust Speed Precip Events Conditions
12:58 AM 65.7 °F 64.9 °F 98% 30.10 in 10.0 mi West 3.5 mph - N/A   Clear
1:38 AM 64.4 °F 64.4 °F 100% 30.10 in 9.0 mi WSW 2.3 mph - N/A   Clear
1:58 AM 63.9 °F 63.9 °F 100% 30.10 in 9.0 mi South 1.2 mph - N/A   Clear
2:58 AM 64.0 °F 64.0 °F 100% 30.10 in 9.0 mi SSE 2.3 mph - N/A   Clear
3:33 AM 62.6 °F 62.6 °F 100% 30.10 in 5.0 mi SSW 2.3 mph - N/A   Clear
3:38 AM 62.6 °F 62.6 °F 100% 30.10 in 1.0 mi SSW 2.3 mph - N/A   Clear
3:43 AM 62.6 °F 62.6 °F 100% 30.10 in 0.5 mi SW 2.3 mph - N/A Fog Fog
3:58 AM 61.2 °F 61.2 °F 100% 30.10 in 0.5 mi SW 1.2 mph - N/A Fog Fog
4:13 AM 62.6 °F 62.6 °F 100% 30.10 in 1.0 mi SE 3.5 mph - N/A   Scattered Clouds
4:18 AM 62.6 °F 62.6 °F 100% 30.10 in 2.0 mi SSE 4.6 mph - N/A   Mostly Cloudy
4:23 AM 62.6 °F 62.6 °F 100% 30.11 in 7.0 mi SSE 4.6 mph - N/A   Mostly Cloudy
4:58 AM 62.6 °F 62.6 °F 100% 30.11 in 5.0 mi South 2.3 mph - N/A   Scattered Clouds
5:03 AM 62.6 °F 62.6 °F 100% 30.11 in 4.0 mi South 2.3 mph - N/A   Mostly Cloudy
5:08 AM 62.6 °F 62.6 °F 100% 30.11 in 3.0 mi South 2.3 mph - N/A   Scattered Clouds
5:23 AM 62.6 °F 62.6 °F 100% 30.11 in 2.5 mi SSE 4.6 mph - N/A   Partly Cloudy
5:28 AM 62.6 °F 62.6 °F 100% 30.11 in 3.0 mi SSE 3.5 mph - N/A   Partly Cloudy
5:33 AM 62.6 °F 62.6 °F 100% 30.11 in 5.0 mi SSE 2.3 mph - N/A   Partly Cloudy
5:48 AM 60.8 °F 60.8 °F 100% 30.11 in 4.0 mi South 3.5 mph - N/A   Clear
5:53 AM 60.8 °F 60.8 °F 100% 30.12 in 3.0 mi Calm Calm - N/A   Clear
5:58 AM 61.3 °F 61.3 °F 100% 30.12 in 3.0 mi Calm Calm - N/A   Clear
6:03 AM 60.8 °F 60.8 °F 100% 30.12 in 2.0 mi SW 2.3 mph - N/A   Clear
6:08 AM 60.8 °F 60.8 °F 100% 30.12 in 1.5 mi Calm Calm - N/A   Clear
6:13 AM 60.8 °F 60.8 °F 100% 30.12 in 2.5 mi NW 1.2 mph - N/A   Clear
6:18 AM 60.8 °F 60.8 °F 100% 30.12 in 5.0 mi West 2.3 mph - N/A   Clear
6:38 AM 60.8 °F 60.8 °F 100% 30.12 in 1.2 mi East 2.3 mph - N/A   Clear
6:43 AM 60.8 °F 60.8 °F 100% 30.12 in 1.0 mi ESE 2.3 mph - N/A   Clear
6:48 AM 60.8 °F 60.8 °F 100% 30.12 in 2.0 mi SE 2.3 mph - N/A   Clear
6:53 AM 60.8 °F 60.8 °F 100% 30.12 in 6.0 mi SE 2.3 mph - N/A   Clear
6:58 AM 60.3 °F 60.3 °F 100% 30.13 in 1.0 mi SE 2.3 mph - N/A   Clear
7:03 AM 60.8 °F 60.8 °F 100% 30.13 in 0.8 mi SE 3.5 mph - N/A   Clear
7:23 AM 60.8 °F 60.8 °F 100% 30.13 in 0.5 mi SE 2.3 mph - N/A Fog Fog
7:33 AM 60.8 °F 60.8 °F 100% 30.13 in 0.1 mi SE 1.2 mph - N/A Fog Fog
7:53 AM 60.8 °F 60.8 °F 100% 30.14 in 1.0 mi ESE 1.2 mph - N/A   Clear
7:58 AM 61.3 °F 61.3 °F 100% 30.14 in 1.0 mi East 1.2 mph - N/A   Clear
8:13 AM 62.6 °F 62.6 °F 100% 30.14 in 1.5 mi Calm Calm - N/A   Clear
8:18 AM 62.6 °F 62.6 °F 100% 30.14 in 2.0 mi Calm Calm - N/A   Clear
8:33 AM 62.6 °F 62.6 °F 100% 30.14 in 3.0 mi SE 2.3 mph - N/A   Clear
8:59 AM 66.2 °F 66.2 °F 100% 30.15 in 6.0 mi SE 3.5 mph - N/A   Clear
9:58 AM 70.9 °F 63.9 °F 78% 30.15 in 10.0 mi SSE 2.3 mph - N/A   Clear
10:58 AM 72.9 °F 61.3 °F 67% 30.15 in 10.0 mi SE 3.5 mph - N/A   Clear
11:58 AM 73.2 °F 61.7 °F 67% 30.15 in 10.0 mi Variable 4.6 mph - N/A   Clear
12:58 PM 75.2 °F 60.1 °F 59% 30.15 in 10.0 mi Variable 2.3 mph - N/A   Scattered Clouds
1:55 PM 75.2 °F 59.0 °F 57% 30.14 in 6.2 mi East 6.9 mph - -   Scattered Clouds
2:55 PM 76.3 °F 59.7 °F 56% 30.13 in 10.0 mi ENE 6.9 mph - N/A   Scattered Clouds
3:55 PM 76.3 °F 59.7 °F 56% 30.12 in 10.0 mi East 5.8 mph - N/A   Partly Cloudy
3:56 PM 77.0 °F 59.0 °F 54% 30.12 in 10.0 mi East 5.8 mph - N/A   Scattered Clouds
4:55 PM 76.1 °F 58.5 °F 54% 30.09 in 10.0 mi Variable 4.6 mph - N/A   Partly Cloudy
4:56 PM 77.0 °F 59.0 °F 54% 30.10 in 10.0 mi East 4.6 mph - N/A   Partly Cloudy
5:58 PM 75.6 °F 59.5 °F 57% 30.10 in 10.0 mi East 4.6 mph - N/A   Partly Cloudy
6:58 PM 74.7 °F 62.6 °F 66% 30.09 in 10.0 mi ENE 4.6 mph - N/A   Scattered Clouds
7:58 PM 73.0 °F 64.9 °F 76% 30.08 in 10.0 mi NE 3.5 mph - N/A   Clear
8:58 PM 70.9 °F 65.3 °F 82% 30.09 in 10.0 mi East 3.5 mph - N/A   Clear
9:58 PM 69.6 °F 66.6 °F 90% 30.09 in 10.0 mi East 2.3 mph - N/A   Mostly Cloudy
10:58 PM 69.4 °F 66.7 °F 91% 30.10 in 10.0 mi SE 3.5 mph - N/A   Partly Cloudy
11:58 PM 69.1 °F 66.6 °F 92% 30.09 in 10.0 mi Calm Calm - N/A   Mostly Cloudy